Regional Weather Roundup
Issued by NWS

Home | Current Version | Previous Version | Text Only | Print | Product List | Glossary Off
Versions: 1 2 3 4 5 6 7 8 9 10 11 12 13 14 15 16 17 18 19 20 21 22 23 24 25 26 27 28 29 30 31 32 33 34 35 36 37 38 39 40 41 42 43 44 45 46 47 48 49 50

000
ASUS44 KMEG 221900
RWRTN
TENNESSEE HOURLY STATE WEATHER ROUNDUP
NATIONAL WEATHER SERVICE MEMPHIS TN
100 PM CST SUN JAN 22 2017

TNZ002-004-019-021-049-052-054-088>092-222000-
WEST TENNESSEE

CITY           SKY/WX    TMP DP  RH WIND       PRES   REMARKS
MEMPHIS INTL   LGT RAIN  56  54  93 W5        29.34F
NWS MEMPHIS      N/A     56 N/A N/A MISG        N/A
JACKSON        CLOUDY    58  54  86 SW3       29.33F
DYERSBURG      CLOUDY    57  52  82 SE8       29.33F
UNION CITY     PTSUNNY   61  54  77 E7        29.32F
PARIS          CLOUDY    61  52  72 NE10      29.34F
$$

TNZ008-025-027-028-033-062-065-066-222000-
NORTH MIDDLE TENNESSEE

CITY           SKY/WX    TMP DP  RH WIND       PRES   REMARKS
NASHVILLE      PTSUNNY   63  53  70 E7        29.34F
CLARKSVILLE    CLOUDY    63  51  65 NE10      29.36F
SMYRNA         PTSUNNY   64  53  67 N5        29.34F
CROSSVILLE     CLOUDY    59  51  75 VRB3      29.38F
$$

TNZ061-075-076-078-094-096-097-222000-
SOUTH MIDDLE TENNESSEE

CITY           SKY/WX    TMP DP  RH WIND       PRES   REMARKS
TULLAHOMA      CLOUDY    61  54  77 NE5       29.31F
WINCHESTER     PTSUNNY   64  55  72 E6        29.30F
SHELBYVILLE    SUNNY     64  55  72 CALM      29.31F
$$

TNZ017-018-042-046-047-222000-
NORTHEAST TENNESSEE

CITY           SKY/WX    TMP DP  RH WIND       PRES   REMARKS
TRI CITIES     PTSUNNY   69  50  50 CALM      29.40F
$$

TNZ012-013-036-069-073-074-222000-
CENTRAL EAST TENNESSEE

CITY           SKY/WX    TMP DP  RH WIND       PRES   REMARKS
KNOXVILLE      CLOUDY    67  52  58 SW10      29.35F
OAK RIDGE      CLOUDY    65  53  65 W7        29.38F
GATLINBURG     PTSUNNY   64  52  63 NE5       29.37F
$$

TNZ083-085-099-222000-
SOUTHEAST TENNESSEE

CITY           SKY/WX    TMP DP  RH WIND       PRES   REMARKS
CHATTANOOGA    PTSUNNY   64  54  69 E10       29.33F
$$

SKY/WX REPORTED AS FAIR MEANS FEW OR NO CLOUDS BELOW
12 THOUSAND FEET.





USA.gov is the U.S. government's official web portal to all federal, state and local government web resources and services.